Location: Miss�
(46.9484°N, 0.1922°W)
Time: 08:13:28
(UTC+00:00)

Meteor 1-19 Rocket - Pass Details

Date: 02 March 2021
Orbit: 807 x 928 km, 81.2° (Epoch: 11 April)

Event Time Altitude Azimuth Distance (km) Brightness Sun altitude
Rises 18:47:40 0° 349° (NNW) 3,572 7.6 -11.0°
Reaches altitude 10° 18:50:11 10° 350° (N) 2,615 6.9 -11.4°
Maximum altitude 18:56:11 82° 79° (E) 912 4.3 -12.4°
Drops below altitude 10° 19:01:58 10° 167° (SSE) 2,524 6.5 -13.4°
Sets 19:04:21 0° 168° (SSE) 3,440 7.2 -13.8°
